Regional Weather Roundup
Issued by NWS New Orleans/Baton Rouge, LA

Home | Current Version | Previous Version | Text Only | Print | Product List | Glossary Off
Versions: 1 2 3 4 5 6 7 8 9 10 11 12 13 14 15 16 17 18 19 20 21 22 23 24 25 26 27 28 29 30 31 32 33 34 35 36 37 38 39 40 41 42 43 44 45 46 47 48 49 50

378
ASUS44 KLIX 210510
RWRLIX
NEW ORLEANS REGIONAL WEATHER ROUNDUP
NATIONAL WEATHER SERVICE NEW ORLEANS LA
1200 AM CDT TUE OCT 21 2014

NOTE: "FAIR" INDICATES FEW OR NO CLOUDS BELOW 12,000 FEET WITH NO
      SIGNIFICANT WEATHER AND/OR OBSTRUCTIONS TO VISIBILITY.
      SKY/WX - SKY CONDITION AND SIGNIFICANT WEATHER.
      TMP - AIR TEMPERATURE.     DP    - DEWPOINT TEMPERATURE.
      RH  - RELATIVE HUMIDITY.   PRES  - PRESSURE.
      HI  - HEAT INDEX.          WCI   - WIND CHILL INDEX.

*  THESE STATIONS ARE NOT NWS OR FAA STATIONS AND ARE NOT UNDER
   NWS QUALITY CONTROL.

LAZ038-040-048-061>063-065>067-069-210600-
SOUTHEAST LOUISIANA

CITY           SKY/WX    TMP DP  RH WIND       PRES   REMARKS
N.O. AUDUBON     N/A     66  59  78 MISG        N/A
N.O. INTL ARPT PTCLDY    65  56  72 CALM      30.01F
N.O. LAKEFRONT CLEAR     72  57  59 NE12      30.02S
N.O. DOWNTOWN*   N/A     70  52  52 CALM      30.02S
SLIDELL        CLEAR     54  51  90 N3        30.02S
BATON ROUGE    CLEAR     59  54  83 N3        30.03F
BOOTHVILLE     CLEAR     71  63  75 N5        30.01S
BELLE CHASSE   PTCLDY    58  54  86 CALM      30.01S
BOGALUSA*        N/A     53  49  87 CALM      30.04F
NEW ROADS*       N/A     58  56  94 CALM      30.03F
GONZALES*        N/A     56  56 100 CALM      30.02S
HAMMOND*       CLEAR     54  52  94 NW3       30.04F
HOUMA*         CLEAR     58  56  95 CALM      30.01F
PORT FOURCHON* CLEAR     72  63  73 E6        30.04S

$$

MSZ070-080>082-210600-
SOUTHERN MISSISSIPPI

CITY           SKY/WX    TMP DP  RH WIND       PRES   REMARKS
MCCOMB         CLEAR     59  51  75 N5        30.04F
GULFPORT       CLEAR     56  53  90 CALM      30.01F
BILOXI         CLEAR     62  53  71 NE5       30.01S
PASCAGOULA     CLEAR     49  48  97 CALM      30.02S

$$

COASTAL OBSERVATIONS
LAKE AND NEARSHORE STATIONS

STATION/POSITION TIME  TEMP    WIND        PRES    WAVE
                       AIR SEA DIR/SP/G            HT/PER
                 (UTC) (F)     (DEG/KT/KT) (MB)    (FT/S)
PASCAGOULA       0500   62      20/  5/  7 1015.7
WAVELAND YACHT   0500   67      20/  6/  7 1015.6
GRAND ISLE       0500   72 78   70/  6/  8 1016.6
SOUTHWEST PASS   0500   72 84              1016.1
NEW CANAL        0500   72 72   40/ 12/ 13 1016.5
SHELL BEACH      0500   72 70  360/  9/ 10 1016.0

OFFSHORE STATIONS

STATION/POSITION TIME  TEMP    WIND        PRES    WAVE
                       AIR SEA DIR/SP/G            HT/PER
                 (UTC) (F)     (DEG/KT/KT) (MB)    (FT/S)
64 S DAUPHIN ISL 0427   74 79   30/  8/ 10 1016.3    1/ 4

$$




USA.gov is the U.S. government's official web portal to all federal, state and local government web resources and services.